Tracking 17155 objects as of 30-July-2015
HD Live streaming from Space Station

SL-16 R/B

Track SL-16 R/B now!
10-day predictions
SL-16 R/B is classified as:


NORAD ID: 22285
Int'l Code: 1992-093B
Perigee: 848.1 km
Apogee: 851.0 km
Inclination: 71.0 °
Period: 101.8 minutes
Semi major axis: 7220 km
RCS: 8.7386 m2 (large)
Launch date: December 25, 1992
Source: Commonwealth of Independent States (former USSR) (CIS)

Note: This is a ROCKET BODY
Your satellite tracking list
Your tracking list is empty





NASA's NSSDC Master Catalog

Two Line Element Set (TLE):
1 22285U 92093B   15210.47553462  .00000187  00000-0  12091-3 0  9999
2 22285 071.0199 216.9977 0002045 103.3688 256.7662 14.14976527165113

Source of the keplerian elements: AFSPC

N2YO: 236